TimeCDT,TemperatureF,Dew PointF,Humidity,Sea Level PressureIn,VisibilityMPH,Wind Direction,Wind SpeedMPH,Gust SpeedMPH,PrecipitationIn,Events,Conditions,WindDirDegrees,DateUTC
12:14 AM,30.2,24.8,80,30.06,10.0,West,4.6,-,N/A,,Clear,270,2013-04-24 05:14:00
12:34 AM,30.2,24.8,80,30.06,10.0,West,4.6,-,N/A,,Clear,270,2013-04-24 05:34:00
12:54 AM,30.2,24.8,80,30.05,10.0,West,4.6,-,N/A,,Clear,260,2013-04-24 05:54:00
1:14 AM,30.2,24.8,80,30.05,10.0,West,3.5,-,N/A,,Clear,260,2013-04-24 06:14:00
1:34 AM,30.2,24.8,80,30.05,10.0,WSW,3.5,-,N/A,,Clear,250,2013-04-24 06:34:00
1:54 AM,30.2,24.8,80,30.04,10.0,Calm,Calm,-,N/A,,Clear,0,2013-04-24 06:54:00
2:14 AM,30.2,24.8,80,30.04,10.0,WSW,3.5,-,N/A,,Clear,240,2013-04-24 07:14:00
2:34 AM,28.4,24.8,86,30.04,10.0,Calm,Calm,-,N/A,,Clear,0,2013-04-24 07:34:00
2:54 AM,28.4,24.8,86,30.04,10.0,SW,3.5,-,N/A,,Clear,230,2013-04-24 07:54:00
3:13 AM,28.4,24.8,86,30.04,10.0,SW,3.5,-,N/A,,Clear,220,2013-04-24 08:13:00
3:34 AM,28.4,24.8,86,30.04,10.0,SSW,3.5,-,N/A,,Clear,210,2013-04-24 08:34:00
3:54 AM,26.6,24.8,93,30.04,10.0,South,4.6,-,N/A,,Clear,190,2013-04-24 08:54:00
4:13 AM,28.4,24.8,86,30.04,10.0,Calm,Calm,-,N/A,,Clear,0,2013-04-24 09:13:00
4:34 AM,28.4,24.8,86,30.03,10.0,SSW,4.6,-,N/A,,Clear,210,2013-04-24 09:34:00
5:13 AM,26.6,24.8,93,30.03,10.0,South,4.6,-,N/A,,Clear,180,2013-04-24 10:13:00
5:34 AM,26.6,24.8,93,30.02,10.0,South,4.6,-,N/A,,Clear,180,2013-04-24 10:34:00
5:54 AM,28.4,24.8,86,30.02,10.0,South,4.6,-,N/A,,Scattered Clouds,190,2013-04-24 10:54:00
6:13 AM,26.6,24.8,93,30.01,10.0,South,4.6,-,N/A,,Mostly Cloudy,170,2013-04-24 11:13:00
6:34 AM,28.4,26.6,93,30.01,10.0,South,3.5,-,N/A,,Scattered Clouds,170,2013-04-24 11:34:00
6:45 AM,28.4,26.6,93,30.01,10.0,SSE,4.6,-,N/A,,Clear,150,2013-04-24 11:45:00
6:54 AM,28.4,26.6,93,30.01,10.0,SSE,4.6,-,N/A,,Clear,160,2013-04-24 11:54:00
7:45 AM,32.0,28.4,87,30.01,10.0,South,8.1,-,N/A,,Clear,190,2013-04-24 12:45:00
8:45 AM,35.6,28.4,75,29.99,10.0,SW,5.8,-,N/A,,Clear,220,2013-04-24 13:45:00
9:45 AM,39.2,28.4,65,29.98,10.0,SW,9.2,-,N/A,,Clear,220,2013-04-24 14:45:00
10:45 AM,42.8,28.4,57,29.97,10.0,SSW,9.2,-,N/A,,Clear,210,2013-04-24 15:45:00
1:50 PM,51.8,26.6,38,29.92,10.0,SW,16.1,28.8,N/A,,Mostly Cloudy,230,2013-04-24 18:50:00
2:50 PM,53.6,24.8,33,29.90,10.0,SSW,23.0,29.9,N/A,,Mostly Cloudy,200,2013-04-24 19:50:00
3:50 PM,50.0,21.2,32,29.90,10.0,WSW,24.2,35.7,N/A,,Overcast,250,2013-04-24 20:50:00
4:45 PM,48.2,24.8,40,29.90,10.0,SW,19.6,26.5,N/A,,Overcast,230,2013-04-24 21:45:00
5:50 PM,39.2,37.4,93,29.92,5.0,WNW,17.3,23.0,N/A,Rain,Light Rain Showers,290,2013-04-24 22:50:00
6:50 PM,39.2,35.6,87,29.92,10.0,WNW,11.5,-,N/A,,Overcast,300,2013-04-24 23:50:00
7:45 PM,39.2,35.6,87,29.91,10.0,SW,4.6,-,N/A,,Mostly Cloudy,230,2013-04-25 00:45:00
8:45 PM,39.2,35.6,87,29.93,10.0,SW,4.6,-,N/A,,Mostly Cloudy,230,2013-04-25 01:45:00
9:54 PM,37.4,33.8,87,29.95,10.0,SW,6.9,-,N/A,,Scattered Clouds,230,2013-04-25 02:54:00
10:14 PM,37.4,35.6,93,29.96,10.0,SW,5.8,-,N/A,,Mostly Cloudy,230,2013-04-25 03:14:00
10:34 PM,37.4,35.6,93,29.96,10.0,SW,5.8,-,N/A,,Mostly Cloudy,220,2013-04-25 03:34:00
10:54 PM,39.2,35.6,87,29.96,10.0,SW,8.1,-,N/A,,Mostly Cloudy,230,2013-04-25 03:54:00
11:14 PM,39.2,35.6,87,29.96,10.0,WSW,8.1,-,N/A,,Mostly Cloudy,240,2013-04-25 04:14:00
11:34 PM,39.2,35.6,87,29.96,10.0,WSW,6.9,-,N/A,,Scattered Clouds,250,2013-04-25 04:34:00
11:54 PM,37.4,35.6,93,29.96,10.0,West,9.2,-,N/A,,Scattered Clouds,260,2013-04-25 04:54:00